Goodland, KS

9:24 PM MST on November 13, 2019 (GMT -0700)
Renner-Goodland Municipal

Weather History for KGLD - September, 2019

Change the Weather History Date:

Sunday, September 22, 2019

  Actual Average Record
Temperature  
Mean Temperature 61 °F 62 °F  
Max Temperature 76 °F 76 °F 96 °F (1939)
Min Temperature 46 °F 47 °F 30 °F (1983)
Degree Days  
Heating Degree Days 4 5  
Month to date heating degree days 6 58  
Since 1 July heating degree days 6 70  
Cooling Degree Days 0 2  
Month to date cooling degree days 173 90  
Year to date cooling degree days 1019 923  
Growing Degree Days 10 (Base 50)    
Moisture  
Dew Point 48 °F    
Average Humidity 68    
Maximum Humidity 100    
Minimum Humidity 36    
Precipitation  
Precipitation T in 0.04 in 1.16 in (1895)
Month to date precipitation 0.65 0.91  
Year to date precipitation 21.51 16.81  
Snow  
Snow 0.00 in 0.00 in - ()
Month to date snowfall 0.0 0.2  
Since 1 July snowfall 0.0 0.2  
Since 1 September snowfall 0.0 0.2  
Snow Depth 0.00 in    
Sea Level Pressure  
Sea Level Pressure 29.98 in    
Wind  
Wind Speed 8 mph (West)    
Max Wind Speed 21 mph    
Max Gust Speed 30 mph    
Visibility 10 miles    
Events Rain , Thunderstorm    
T = Trace of Precipitation, MM = Missing Value Source: NWS Daily Summary

Daily Weather History Graph

Daily Weather History Graph

Search for Another Location

Airport or City:

Astronomy

Sep. 22, 2019 Rise Set
Actual Time 6:34 AM MDT 6:44 PM MDT
Civil Twilight 6:07 AM MDT 7:10 PM MDT
Nautical Twilight 5:36 AM MDT 7:42 PM MDT
Astronomical Twilight 5:04 AM MDT 8:13 PM MDT
Moon No Moon Rise 2:39 PM MDT (9/22)
Length of Visible Light 13h 03m
Length of Day
12h 09m
Last Quarter, 43% of the Moon is Illuminated
Sep 22
Last Quarter
Sep 28
New
Oct 5
First Quarter
Oct 13
Full
Oct 21
Last Quarter

Hourly Weather History & Observations

Time (MDT) Temp. Dew Point Humidity Pressure Visibility Wind Dir Wind Speed Gust Speed Precip Events Conditions
12:02 AM 55.9 °F 46.9 °F 72% 29.98 in 9.0 mi North 25.3 mph 35.7 mph 0.00 in Rain , Thunderstorm Light Rain
12:25 AM 54.0 °F 48.9 °F 83% 29.99 in 6.0 mi North 20.7 mph 33.4 mph 0.06 in Rain , Thunderstorm Heavy Thunderstorms and Rain
12:51 AM 53.6 °F 50.0 °F 88% 30.02 in 6.0 mi North 13.8 mph 31.1 mph 0.29 in Rain Rain
1:53 AM 54.0 °F 51.1 °F 90% 29.91 in 10.0 mi North 15.0 mph 25.3 mph 0.00 in   Overcast
2:53 AM 53.1 °F 48.9 °F 86% 29.92 in 10.0 mi NNE 15.0 mph - N/A   Overcast
3:53 AM 51.1 °F 48.9 °F 92% 29.92 in 10.0 mi North 10.4 mph - N/A   Clear
4:53 AM 50.0 °F 48.9 °F 96% 29.95 in 10.0 mi North 10.4 mph - N/A   Partly Cloudy
5:53 AM 48.0 °F 48.0 °F 100% 29.95 in 10.0 mi North 3.5 mph - N/A   Clear
6:53 AM 46.0 °F 46.0 °F 100% 29.99 in 10.0 mi Calm Calm - N/A   Clear
7:53 AM 53.1 °F 50.0 °F 89% 29.99 in 10.0 mi NW 8.1 mph - N/A   Clear
8:53 AM 55.9 °F 48.9 °F 77% 30.01 in 10.0 mi NW 9.2 mph - N/A   Clear
9:53 AM 59.0 °F 48.9 °F 69% 30.02 in 10.0 mi Calm Calm - N/A   Clear
10:53 AM 64.0 °F 50.0 °F 60% 30.01 in 10.0 mi West 6.9 mph - N/A   Clear
11:53 AM 66.9 °F 48.9 °F 52% 30.01 in 10.0 mi Variable 5.8 mph - N/A   Clear
12:53 PM 69.1 °F 48.9 °F 49% 30.00 in 10.0 mi SW 6.9 mph - N/A   Clear
1:53 PM 72.0 °F 48.0 °F 43% 29.96 in 10.0 mi WSW 6.9 mph - N/A   Clear
2:53 PM 71.1 °F 46.0 °F 41% 29.95 in 10.0 mi South 4.6 mph - N/A   Partly Cloudy
3:53 PM 75.9 °F 46.9 °F 36% 29.94 in 10.0 mi SSW 9.2 mph 17.3 mph N/A   Mostly Cloudy
4:53 PM 73.9 °F 46.0 °F 37% 29.94 in 10.0 mi SW 6.9 mph - N/A   Clear
5:53 PM 73.0 °F 46.0 °F 38% 29.96 in 10.0 mi South 5.8 mph - N/A   Clear
6:53 PM 64.9 °F 48.9 °F 56% 29.99 in 10.0 mi Calm Calm - N/A   Clear
7:53 PM 60.1 °F 48.0 °F 64% 30.01 in 10.0 mi South 8.1 mph - N/A   Clear
8:53 PM 57.0 °F 48.9 °F 74% 30.03 in 10.0 mi South 9.2 mph - N/A   Clear
9:53 PM 57.9 °F 48.0 °F 70% 30.03 in 10.0 mi South 11.5 mph - N/A   Clear
10:53 PM 57.9 °F 48.9 °F 72% 30.03 in 10.0 mi South 11.5 mph - N/A   Clear
11:53 PM 57.9 °F 48.0 °F 70% 30.02 in 10.0 mi South 12.7 mph - N/A   Clear